Simultaneous Nadir Overpasses (SNOs) Predictions

Prediction of SNOs between LANDSAT-8 and METOP-B Satellite Orbit:

Table of predicted SNOs for the next 14.0 days since TLE Epoch: 8/22/2020
Index Date (LANDSAT-8) Time (LANDSAT-8) Lat,Lon (LANDSAT-8) SZA (LANDSAT-8 ) Date (METOP-B) Time (METOP-B) Lat,Lon (METOP-B) SZA (METOP-B ) Distance(km) Time Diff (sec)
1 08/23/2020 14:37:54 -81.18,-178.47 107.83 08/23/2020 14:37:35 -81.19,-178.30 107.82 2.87 19
2 08/23/2020 15:27:20 81.19, -10.77 72.19 08/23/2020 15:28:16 81.19, -10.96 72.20 3.17 56
3 08/26/2020 10:12:11 -81.18,-112.06 106.85 08/26/2020 10:11:56 -81.18,-112.01 106.85 0.90 15
4 08/26/2020 11:01:36 81.21, 55.98 73.23 08/26/2020 11:02:35 81.21, 56.07 73.26 1.55 59
5 08/29/2020 05:46:27 -81.18, -45.65 105.84 08/29/2020 05:46:16 -81.18, -45.72 105.85 1.30 11
6 08/29/2020 06:35:52 81.20, 122.37 74.23 08/29/2020 06:36:55 81.20, 122.32 74.25 0.77 63
7 09/01/2020 01:20:44 -81.18, 20.76 104.81 09/01/2020 01:20:36 -81.19, 20.93 104.79 2.90 8
8 09/01/2020 02:10:09 81.20,-171.24 75.26 09/01/2020 02:11:15 81.21,-171.06 75.31 3.28 66
9 09/03/2020 20:55:01 -81.18, 87.18 103.77 09/03/2020 20:54:57 -81.18, 87.19 103.76 0.50 4
